Year,Month,Day,Hour,Minute,Value (Times are PST for temperature in C)
2011,02,18,00,00,-1.10
2011,02,18,00,01,-1.10
2011,02,18,00,02,-1.10
2011,02,18,00,03,-1.00
2011,02,18,00,04,-1.00
2011,02,18,00,05,-1.00
2011,02,18,00,06,-1.00
2011,02,18,00,07,-1.00
2011,02,18,00,08,-1.00
2011,02,18,00,09,-1.00
2011,02,18,00,10,-1.00
2011,02,18,00,11,-1.00
2011,02,18,00,12,-1.00
2011,02,18,00,13,-1.00
2011,02,18,00,14,-1.00
2011,02,18,00,15,-1.00
2011,02,18,00,16,-1.00
2011,02,18,00,17,-1.00
2011,02,18,00,18,-1.00
2011,02,18,00,19,-1.00
2011,02,18,00,20,-1.00
2011,02,18,00,21,-1.00
2011,02,18,00,22,-1.00
2011,02,18,00,23,-0.90
2011,02,18,00,24,-0.90
2011,02,18,00,25,-0.90
2011,02,18,00,26,-0.90
2011,02,18,00,27,-0.90
2011,02,18,00,28,-0.90
2011,02,18,00,29,-0.90
2011,02,18,00,30,-0.90
2011,02,18,00,31,-0.90
2011,02,18,00,32,-0.80
2011,02,18,00,33,-0.80
2011,02,18,00,34,-0.80
2011,02,18,00,35,-0.80
2011,02,18,00,36,-0.80
2011,02,18,00,37,-0.80
2011,02,18,00,38,-0.80
2011,02,18,00,39,-0.80
2011,02,18,00,40,-0.70
2011,02,18,00,41,-0.70
2011,02,18,00,42,-0.70
2011,02,18,00,43,-0.70
2011,02,18,00,44,-0.70
2011,02,18,00,45,-0.70
2011,02,18,00,46,-0.70
2011,02,18,00,47,-0.70
2011,02,18,00,48,-0.70
2011,02,18,00,49,-0.70
2011,02,18,00,50,-0.70
2011,02,18,00,51,-0.70
2011,02,18,00,52,-0.70
2011,02,18,00,53,-0.60
2011,02,18,00,54,-0.60
2011,02,18,00,55,-0.60
2011,02,18,00,56,-0.60
2011,02,18,00,57,-0.60
2011,02,18,00,58,-0.50
2011,02,18,00,59,-0.50
2011,02,18,01,00,-0.40
2011,02,18,01,01,-0.40
2011,02,18,01,02,-0.40
2011,02,18,01,03,-0.40
2011,02,18,01,04,-0.30
2011,02,18,01,05,-0.30
2011,02,18,01,06,-0.30
2011,02,18,01,07,-0.30
2011,02,18,01,08,-0.30
2011,02,18,01,09,-0.30
2011,02,18,01,10,-0.30
2011,02,18,01,11,-0.20
2011,02,18,01,12,-0.20
2011,02,18,01,13,-0.20
2011,02,18,01,14,-0.20
2011,02,18,01,15,-0.10
2011,02,18,01,16,-0.10
2011,02,18,01,17,-0.10
2011,02,18,01,18,-0.10
2011,02,18,01,19,-0.10
2011,02,18,01,20,-0.10
2011,02,18,01,21,-0.10
2011,02,18,01,22,-0.10
2011,02,18,01,23,-0.10
2011,02,18,01,24,-0.10
2011,02,18,01,25,-0.10
2011,02,18,01,26,-0.10
2011,02,18,01,27,0.00
2011,02,18,01,28,0.00
2011,02,18,01,29,0.00
2011,02,18,01,30,0.00
2011,02,18,01,31,0.00
2011,02,18,01,32,0.10
2011,02,18,01,33,0.10
2011,02,18,01,34,0.10
2011,02,18,01,35,0.10
2011,02,18,01,36,0.10
2011,02,18,01,37,0.20
2011,02,18,01,38,0.20
2011,02,18,01,39,0.20
2011,02,18,01,40,0.20
2011,02,18,01,41,0.20
2011,02,18,01,42,0.20
2011,02,18,01,43,0.20
2011,02,18,01,44,0.20
2011,02,18,01,45,0.20
2011,02,18,01,46,0.20
2011,02,18,01,47,0.20
2011,02,18,01,48,0.20
2011,02,18,01,49,0.20
2011,02,18,01,50,0.20
2011,02,18,01,51,0.30
2011,02,18,01,52,0.30
2011,02,18,01,53,0.30
2011,02,18,01,54,0.30
2011,02,18,01,55,0.30
2011,02,18,01,56,0.30
2011,02,18,01,57,0.30
2011,02,18,01,58,0.30
2011,02,18,01,59,0.30
2011,02,18,02,00,0.30
2011,02,18,02,01,0.30
2011,02,18,02,02,0.30
2011,02,18,02,03,0.30
2011,02,18,02,04,0.30
2011,02,18,02,05,0.30
2011,02,18,02,06,0.30
2011,02,18,02,07,0.30
2011,02,18,02,08,0.30
2011,02,18,02,09,0.20
2011,02,18,02,10,0.20
2011,02,18,02,11,0.20
2011,02,18,02,12,0.20
2011,02,18,02,13,0.20
2011,02,18,02,14,0.20
2011,02,18,02,15,0.20
2011,02,18,02,16,0.20
2011,02,18,02,17,0.20
2011,02,18,02,18,0.20
2011,02,18,02,19,0.20
2011,02,18,02,20,0.20
2011,02,18,02,21,0.20
2011,02,18,02,22,0.20
2011,02,18,02,23,0.20
2011,02,18,02,24,0.20
2011,02,18,02,25,0.20
2011,02,18,02,26,0.20
2011,02,18,02,27,0.20
2011,02,18,02,28,0.10
2011,02,18,02,29,0.10
2011,02,18,02,30,0.10
2011,02,18,02,31,0.10
2011,02,18,02,32,0.10
2011,02,18,02,33,0.10
2011,02,18,02,34,0.10
2011,02,18,02,35,0.10
2011,02,18,02,36,0.10
2011,02,18,02,37,0.10
2011,02,18,02,38,0.10
2011,02,18,02,39,0.10
2011,02,18,02,40,0.10
2011,02,18,02,41,0.10
2011,02,18,02,42,0.00
2011,02,18,02,43,0.00
2011,02,18,02,44,0.00
2011,02,18,02,45,0.00
2011,02,18,02,46,0.00
2011,02,18,02,47,0.00
2011,02,18,02,48,0.00
2011,02,18,02,49,0.00
2011,02,18,02,50,0.00
2011,02,18,02,51,0.00
2011,02,18,02,52,0.00
2011,02,18,02,53,0.00
2011,02,18,02,54,0.00
2011,02,18,02,55,0.00
2011,02,18,02,56,0.00
2011,02,18,02,57,0.00
2011,02,18,02,58,0.00
2011,02,18,02,59,0.00
2011,02,18,03,00,0.10
2011,02,18,03,01,0.10
2011,02,18,03,02,0.10
2011,02,18,03,03,0.10
2011,02,18,03,04,0.10
2011,02,18,03,05,0.10
2011,02,18,03,06,0.10
2011,02,18,03,07,0.10
2011,02,18,03,08,0.10
2011,02,18,03,09,0.00
2011,02,18,03,10,0.00
2011,02,18,03,11,0.00
2011,02,18,03,12,0.00
2011,02,18,03,13,0.00
2011,02,18,03,14,-0.10
2011,02,18,03,15,-0.10
2011,02,18,03,16,-0.10
2011,02,18,03,17,-0.10
2011,02,18,03,18,-0.10
2011,02,18,03,19,-0.10
2011,02,18,03,20,-0.10
2011,02,18,03,21,-0.10
2011,02,18,03,22,-0.10
2011,02,18,03,23,-0.10
2011,02,18,03,24,-0.10
2011,02,18,03,25,-0.10
2011,02,18,03,26,-0.20
2011,02,18,03,27,-0.20
2011,02,18,03,28,-0.20
2011,02,18,03,29,-0.20
2011,02,18,03,30,-0.20
2011,02,18,03,31,-0.20
2011,02,18,03,32,-0.20
2011,02,18,03,33,-0.20
2011,02,18,03,34,-0.20
2011,02,18,03,35,-0.20
2011,02,18,03,36,-0.20
2011,02,18,03,37,-0.20
2011,02,18,03,38,-0.20
2011,02,18,03,39,-0.20
2011,02,18,03,40,-0.30
2011,02,18,03,41,-0.20
2011,02,18,03,42,-0.20
2011,02,18,03,43,-0.30
2011,02,18,03,44,-0.30
2011,02,18,03,45,-0.30
2011,02,18,03,49,-0.30
2011,02,18,03,50,-0.30
2011,02,18,03,51,-0.30
2011,02,18,03,52,-0.30
2011,02,18,03,53,-0.30
2011,02,18,03,54,-0.30
2011,02,18,03,55,-0.30
2011,02,18,03,56,-0.30
2011,02,18,03,57,-0.30
2011,02,18,03,58,-0.30
2011,02,18,03,59,-0.30
2011,02,18,04,00,-0.30
2011,02,18,04,01,-0.30
2011,02,18,04,02,-0.30
2011,02,18,04,03,-0.30
2011,02,18,04,04,-0.30
2011,02,18,04,05,-0.20
2011,02,18,04,06,-0.20
2011,02,18,04,07,-0.20
2011,02,18,04,08,-0.20
2011,02,18,04,09,-0.20
2011,02,18,04,10,-0.20
2011,02,18,04,11,-0.20
2011,02,18,04,12,-0.20
2011,02,18,04,13,-0.10
2011,02,18,04,14,-0.10
2011,02,18,04,15,-0.10
2011,02,18,04,16,-0.10
2011,02,18,04,17,-0.10
2011,02,18,04,18,-0.10
2011,02,18,04,19,-0.10
2011,02,18,04,20,-0.10
2011,02,18,04,21,-0.10
2011,02,18,04,22,-0.10
2011,02,18,04,23,-0.10
2011,02,18,04,24,-0.10
2011,02,18,04,25,-0.10
2011,02,18,04,26,-0.10
2011,02,18,04,27,-0.10
2011,02,18,04,28,-0.10
2011,02,18,04,29,-0.10
2011,02,18,04,30,0.00
2011,02,18,04,31,0.00
2011,02,18,04,32,0.00
2011,02,18,04,33,0.00
2011,02,18,04,34,0.00
2011,02,18,04,35,0.00
2011,02,18,04,36,0.00
2011,02,18,04,37,0.00
2011,02,18,04,38,0.00
2011,02,18,04,39,0.00
2011,02,18,04,40,0.00
2011,02,18,04,41,0.00
2011,02,18,04,42,-0.10
2011,02,18,04,43,-0.10
2011,02,18,04,44,-0.10
2011,02,18,04,45,-0.10
2011,02,18,04,46,-0.10
2011,02,18,04,47,-0.10
2011,02,18,04,48,-0.10
2011,02,18,04,49,-0.10
2011,02,18,04,50,-0.10
2011,02,18,04,51,-0.10
2011,02,18,04,52,-0.10
2011,02,18,04,53,-0.10
2011,02,18,04,54,-0.20
2011,02,18,04,55,-0.20
2011,02,18,04,56,-0.10
2011,02,18,04,57,-0.10
2011,02,18,04,58,-0.10
2011,02,18,04,59,-0.10
2011,02,18,05,00,-0.10
2011,02,18,05,01,-0.10
2011,02,18,05,02,-0.10
2011,02,18,05,03,-0.10
2011,02,18,05,04,-0.10
2011,02,18,05,05,-0.10
2011,02,18,05,06,-0.10
2011,02,18,05,07,-0.10
2011,02,18,05,08,-0.10
2011,02,18,05,09,-0.10
2011,02,18,05,10,-0.10
2011,02,18,05,11,0.00
2011,02,18,05,12,0.00
2011,02,18,05,13,0.00
2011,02,18,05,14,0.00
2011,02,18,05,15,0.00
2011,02,18,05,16,0.00
2011,02,18,05,17,0.00
2011,02,18,05,18,0.00
2011,02,18,05,19,0.00
2011,02,18,05,20,0.00
2011,02,18,05,21,0.00
2011,02,18,05,22,0.00
2011,02,18,05,23,0.00
2011,02,18,05,24,0.00
2011,02,18,05,25,0.00
2011,02,18,05,26,0.00
2011,02,18,05,27,0.00
2011,02,18,05,28,0.00
2011,02,18,05,29,0.00
2011,02,18,05,30,0.00
2011,02,18,05,31,0.00
2011,02,18,05,32,0.00
2011,02,18,05,33,0.00
2011,02,18,05,34,0.00
2011,02,18,05,35,0.00
2011,02,18,05,36,0.00
2011,02,18,05,37,0.00
2011,02,18,05,38,0.00
2011,02,18,05,39,0.00
2011,02,18,05,40,0.00
2011,02,18,05,41,0.00
2011,02,18,05,42,0.00
2011,02,18,05,43,0.00
2011,02,18,05,44,0.00
2011,02,18,05,45,0.10
2011,02,18,05,46,0.10
2011,02,18,05,47,0.10
2011,02,18,05,48,0.10
2011,02,18,05,49,0.10
2011,02,18,05,50,0.10
2011,02,18,05,51,0.10
2011,02,18,05,52,0.10
2011,02,18,05,53,0.10
2011,02,18,05,54,0.20
2011,02,18,05,55,0.20
2011,02,18,05,56,0.20
2011,02,18,05,57,0.20
2011,02,18,05,58,0.20
2011,02,18,05,59,0.20
2011,02,18,06,00,0.20
2011,02,18,06,01,0.20
2011,02,18,06,02,0.20
2011,02,18,06,03,0.20
2011,02,18,06,04,0.20
2011,02,18,06,05,0.20
2011,02,18,06,06,0.20
2011,02,18,06,07,0.20
2011,02,18,06,08,0.20
2011,02,18,06,09,0.20
2011,02,18,06,10,0.20
2011,02,18,06,11,0.30
2011,02,18,06,12,0.30
2011,02,18,06,13,0.30
2011,02,18,06,14,0.30
2011,02,18,06,15,0.30
2011,02,18,06,16,0.30
2011,02,18,06,17,0.30
2011,02,18,06,18,0.30
2011,02,18,06,19,0.30
2011,02,18,06,20,0.30
2011,02,18,06,21,0.40
2011,02,18,06,22,0.40
2011,02,18,06,23,0.40
2011,02,18,06,24,0.40
2011,02,18,06,25,0.40
2011,02,18,06,26,0.40
2011,02,18,06,27,0.40
2011,02,18,06,28,0.40
2011,02,18,06,29,0.40
2011,02,18,06,30,0.40
2011,02,18,06,31,0.40
2011,02,18,06,32,0.40
2011,02,18,06,33,0.40
2011,02,18,06,34,0.40
2011,02,18,06,35,0.40
2011,02,18,06,36,0.40
2011,02,18,06,37,0.40
2011,02,18,06,38,0.40
2011,02,18,06,39,0.40
2011,02,18,06,40,0.40
2011,02,18,06,41,0.40
2011,02,18,06,42,0.50
2011,02,18,06,43,0.50
2011,02,18,06,44,0.50
2011,02,18,06,45,0.60
2011,02,18,06,46,0.70
2011,02,18,06,47,0.70
2011,02,18,06,48,0.70
2011,02,18,06,49,0.70
2011,02,18,06,50,0.70
2011,02,18,06,51,0.70
2011,02,18,06,52,0.70
2011,02,18,06,53,0.70
2011,02,18,06,54,0.70
2011,02,18,06,55,0.70
2011,02,18,06,56,0.70
2011,02,18,06,57,0.70
2011,02,18,06,58,0.70
2011,02,18,06,59,0.70
2011,02,18,07,00,0.70
2011,02,18,07,01,0.70
2011,02,18,07,02,0.70
2011,02,18,07,03,0.70
2011,02,18,07,04,0.70
2011,02,18,07,05,0.70
2011,02,18,07,06,0.70
2011,02,18,07,07,0.70
2011,02,18,07,08,0.70
2011,02,18,07,09,0.70
2011,02,18,07,10,0.70
2011,02,18,07,11,0.70
2011,02,18,07,12,0.70
2011,02,18,07,13,0.70
2011,02,18,07,14,0.70
2011,02,18,07,15,0.70
2011,02,18,07,16,0.70
2011,02,18,07,17,0.70
2011,02,18,07,18,0.70
2011,02,18,07,19,0.70
2011,02,18,07,20,0.70
2011,02,18,07,21,0.70
2011,02,18,07,22,0.70
2011,02,18,07,23,0.70
2011,02,18,07,24,0.70
2011,02,18,07,25,0.70
2011,02,18,07,26,0.80
2011,02,18,07,27,0.80
2011,02,18,07,28,0.80
2011,02,18,07,29,0.80
2011,02,18,07,30,0.80
2011,02,18,07,31,0.80
2011,02,18,07,32,0.80
2011,02,18,07,33,0.80
2011,02,18,07,34,0.80
2011,02,18,07,35,0.80
2011,02,18,07,36,0.80
2011,02,18,07,37,0.80
2011,02,18,07,38,0.80
2011,02,18,07,39,0.80
2011,02,18,07,40,0.90
2011,02,18,07,41,0.90
2011,02,18,07,42,0.90
2011,02,18,07,43,0.90
2011,02,18,07,44,0.90
2011,02,18,07,45,0.90
2011,02,18,07,46,0.90
2011,02,18,07,47,0.90
2011,02,18,07,48,0.90
2011,02,18,07,49,1.00
2011,02,18,07,50,1.00
2011,02,18,07,51,1.00
2011,02,18,07,52,1.10
2011,02,18,07,53,1.10
2011,02,18,07,54,1.20
2011,02,18,07,55,1.30
2011,02,18,07,56,1.40
2011,02,18,07,57,1.70
2011,02,18,07,58,1.80
2011,02,18,07,59,2.00
2011,02,18,08,00,2.10
2011,02,18,08,01,2.20
2011,02,18,08,02,2.30
2011,02,18,08,03,2.40
2011,02,18,08,04,2.60
2011,02,18,08,05,2.70
2011,02,18,08,06,2.90
2011,02,18,08,07,3.00
2011,02,18,08,08,3.10
2011,02,18,08,09,3.20
2011,02,18,08,10,3.30
2011,02,18,08,11,3.50
2011,02,18,08,12,3.60
2011,02,18,08,13,3.60
2011,02,18,08,14,3.60
2011,02,18,08,15,3.70
2011,02,18,08,16,3.70
2011,02,18,08,17,3.70
2011,02,18,08,18,3.80
2011,02,18,08,19,3.80
2011,02,18,08,20,3.90
2011,02,18,08,21,3.90
2011,02,18,08,22,3.90
2011,02,18,08,23,3.90
2011,02,18,08,24,4.00
2011,02,18,08,25,4.00
2011,02,18,08,26,4.00
2011,02,18,08,27,4.00
2011,02,18,08,28,4.00
2011,02,18,08,29,4.00
2011,02,18,08,30,4.10
2011,02,18,08,31,4.10
2011,02,18,08,32,4.10
2011,02,18,08,33,4.10
2011,02,18,08,34,4.10
2011,02,18,08,35,4.10
2011,02,18,08,36,4.20
2011,02,18,08,37,4.20
2011,02,18,08,38,4.20
2011,02,18,08,39,4.20
2011,02,18,08,40,4.20
2011,02,18,08,41,4.20
2011,02,18,08,42,4.20
2011,02,18,08,43,4.20
2011,02,18,08,44,4.20
2011,02,18,08,45,4.20
2011,02,18,08,46,4.20
2011,02,18,08,47,4.30
2011,02,18,08,48,4.30
2011,02,18,08,49,4.30
2011,02,18,08,50,4.30
2011,02,18,08,51,4.30
2011,02,18,08,52,4.30
2011,02,18,08,53,4.30
2011,02,18,08,54,4.30
2011,02,18,08,55,4.30
2011,02,18,08,56,4.30
2011,02,18,08,57,4.40
2011,02,18,08,58,4.40
2011,02,18,08,59,4.40
2011,02,18,09,00,4.40
2011,02,18,09,01,4.40
2011,02,18,09,02,4.50
2011,02,18,09,03,4.50
2011,02,18,09,04,4.50
2011,02,18,09,05,4.50
2011,02,18,09,06,4.50
2011,02,18,09,07,4.60
2011,02,18,09,08,4.60
2011,02,18,09,09,4.60
2011,02,18,09,10,4.60
2011,02,18,09,11,4.60
2011,02,18,09,12,4.60
2011,02,18,09,13,4.60
2011,02,18,09,14,4.60
2011,02,18,09,15,4.60
2011,02,18,09,16,4.60
2011,02,18,09,17,4.60
2011,02,18,09,18,4.70
2011,02,18,09,19,4.70
2011,02,18,09,20,4.70
2011,02,18,09,21,4.70
2011,02,18,09,22,4.70
2011,02,18,09,23,4.70
2011,02,18,09,24,4.70
2011,02,18,09,25,4.70
2011,02,18,09,26,4.70
2011,02,18,09,27,4.70
2011,02,18,09,28,4.70
2011,02,18,09,29,4.70
2011,02,18,09,30,4.70
2011,02,18,09,31,4.70
2011,02,18,09,32,4.70
2011,02,18,09,33,4.70
2011,02,18,09,34,4.70
2011,02,18,09,35,4.70
2011,02,18,09,36,4.70
2011,02,18,09,37,4.80
2011,02,18,09,38,4.80
2011,02,18,09,39,4.80
2011,02,18,09,40,4.80
2011,02,18,09,41,4.80
2011,02,18,09,42,4.80
2011,02,18,09,43,4.80
2011,02,18,09,44,4.80
2011,02,18,09,45,4.80
2011,02,18,09,46,4.90
2011,02,18,09,47,4.90
2011,02,18,09,48,4.90
2011,02,18,09,49,4.90
2011,02,18,09,50,4.90
2011,02,18,09,51,4.90
2011,02,18,09,52,4.90
2011,02,18,09,53,4.90
2011,02,18,09,54,5.00
2011,02,18,09,55,5.00
2011,02,18,09,56,5.00
2011,02,18,09,57,5.00
2011,02,18,09,58,5.10
2011,02,18,09,59,5.10
2011,02,18,10,00,5.10
2011,02,18,10,01,5.10
2011,02,18,10,02,5.10
2011,02,18,10,03,5.10
2011,02,18,10,04,5.10
2011,02,18,10,05,5.10
2011,02,18,10,06,5.20
2011,02,18,10,07,5.20
2011,02,18,10,08,5.20
2011,02,18,10,09,5.20
2011,02,18,10,10,5.20
2011,02,18,10,11,5.20
2011,02,18,10,12,5.20
2011,02,18,10,13,5.20
2011,02,18,10,14,5.20
2011,02,18,10,15,5.30
2011,02,18,10,16,5.30
2011,02,18,10,17,5.30
2011,02,18,10,18,5.30
2011,02,18,10,19,5.30
2011,02,18,10,20,5.30
2011,02,18,10,21,5.30
2011,02,18,10,22,5.30
2011,02,18,10,23,5.30
2011,02,18,10,24,5.30
2011,02,18,10,25,5.30
2011,02,18,10,26,5.30
2011,02,18,10,27,5.30
2011,02,18,10,28,5.40
2011,02,18,10,29,5.40
2011,02,18,10,30,5.40
2011,02,18,10,31,5.40
2011,02,18,10,32,5.40
2011,02,18,10,33,5.40
2011,02,18,10,34,5.50
2011,02,18,10,35,5.50
2011,02,18,10,36,5.50
2011,02,18,10,37,5.50
2011,02,18,10,38,5.50
2011,02,18,10,39,5.50
2011,02,18,10,40,5.50
2011,02,18,10,41,5.50
2011,02,18,10,42,5.60
2011,02,18,10,43,5.60
2011,02,18,10,44,5.60
2011,02,18,10,45,5.60
2011,02,18,10,46,5.60
2011,02,18,10,47,5.60
2011,02,18,10,48,5.60
2011,02,18,10,49,5.60
2011,02,18,10,50,5.60
2011,02,18,10,51,5.60
2011,02,18,10,52,5.60
2011,02,18,10,53,5.70
2011,02,18,10,54,5.70
2011,02,18,10,55,5.70
2011,02,18,10,56,5.80
2011,02,18,10,57,5.80
2011,02,18,10,58,5.80
2011,02,18,10,59,5.80
2011,02,18,11,00,5.80
2011,02,18,11,01,5.80
2011,02,18,11,02,5.80
2011,02,18,11,03,5.80
2011,02,18,11,04,5.80
2011,02,18,11,05,5.80
2011,02,18,11,06,5.80
2011,02,18,11,07,5.80
2011,02,18,11,08,5.80
2011,02,18,11,09,5.80
2011,02,18,11,10,5.90
2011,02,18,11,11,5.90
2011,02,18,11,12,5.90
2011,02,18,11,13,5.90
2011,02,18,11,14,5.90
2011,02,18,11,15,5.90
2011,02,18,11,16,5.90
2011,02,18,11,17,6.00
2011,02,18,11,18,6.00
2011,02,18,11,19,6.00
2011,02,18,11,20,6.00
2011,02,18,11,21,6.10
2011,02,18,11,22,6.10
2011,02,18,11,23,6.10
2011,02,18,11,24,6.10
2011,02,18,11,25,6.00
2011,02,18,11,26,6.00
2011,02,18,11,27,6.00
2011,02,18,11,28,6.00
2011,02,18,11,29,6.00
2011,02,18,11,30,5.90
2011,02,18,11,31,5.90
2011,02,18,11,32,5.90
2011,02,18,11,33,5.90
2011,02,18,11,34,5.90
2011,02,18,11,35,5.90
2011,02,18,11,36,5.90
2011,02,18,11,37,6.00
2011,02,18,11,38,6.00
2011,02,18,11,39,6.00
2011,02,18,11,40,6.10
2011,02,18,11,41,6.20
2011,02,18,11,42,6.20
2011,02,18,11,43,6.20
2011,02,18,11,44,6.20
2011,02,18,11,45,6.30
2011,02,18,11,46,6.20
2011,02,18,11,47,6.20
2011,02,18,11,48,6.20
2011,02,18,11,49,6.20
2011,02,18,11,50,6.20
2011,02,18,11,51,6.20
2011,02,18,11,52,6.20
2011,02,18,11,53,6.20
2011,02,18,11,54,6.20
2011,02,18,11,55,6.20
2011,02,18,11,56,6.30
2011,02,18,11,57,6.30
2011,02,18,11,58,6.30
2011,02,18,11,59,6.30
2011,02,18,12,00,6.30
2011,02,18,12,01,6.30
2011,02,18,12,02,6.20
2011,02,18,12,03,6.20
2011,02,18,12,04,6.20
2011,02,18,12,05,6.20
2011,02,18,12,06,6.20
2011,02,18,12,07,6.20
2011,02,18,12,08,6.20
2011,02,18,12,09,6.20
2011,02,18,12,10,6.20
2011,02,18,12,11,6.30
2011,02,18,12,12,6.30
2011,02,18,12,13,6.30
2011,02,18,12,14,6.30
2011,02,18,12,15,6.30
2011,02,18,12,16,6.30
2011,02,18,12,17,6.20
2011,02,18,12,18,6.20
2011,02,18,12,19,6.20
2011,02,18,12,20,6.20
2011,02,18,12,21,6.30
2011,02,18,12,22,6.30
2011,02,18,12,23,6.30
2011,02,18,12,24,6.30
2011,02,18,12,25,6.30
2011,02,18,12,26,6.30
2011,02,18,12,27,6.30
2011,02,18,12,28,6.40
2011,02,18,12,29,6.40
2011,02,18,12,30,6.40
2011,02,18,12,31,6.50
2011,02,18,12,32,6.50
2011,02,18,12,33,6.50
2011,02,18,12,34,6.60
2011,02,18,12,35,6.70
2011,02,18,12,36,6.70
2011,02,18,12,37,6.80
2011,02,18,12,38,6.90
2011,02,18,12,39,7.00
2011,02,18,12,40,7.00
2011,02,18,12,41,7.10
2011,02,18,12,42,7.10
2011,02,18,12,43,7.10
2011,02,18,12,44,7.10
2011,02,18,12,45,7.10
2011,02,18,12,46,7.10
2011,02,18,12,47,7.00
2011,02,18,12,48,7.00
2011,02,18,12,49,7.00
2011,02,18,12,50,6.90
2011,02,18,12,51,6.80
2011,02,18,12,52,6.80
2011,02,18,12,53,6.80
2011,02,18,12,54,6.80
2011,02,18,12,55,6.90
2011,02,18,12,56,6.90
2011,02,18,12,57,6.90
2011,02,18,12,58,7.00
2011,02,18,12,59,7.00
2011,02,18,13,00,7.10
2011,02,18,13,01,7.20
2011,02,18,13,02,7.20
2011,02,18,13,03,7.30
2011,02,18,13,04,7.30
2011,02,18,13,05,7.30
2011,02,18,13,06,7.30
2011,02,18,13,07,7.30
2011,02,18,13,08,7.30
2011,02,18,13,09,7.30
2011,02,18,13,10,7.30
2011,02,18,13,11,7.20
2011,02,18,13,12,7.20
2011,02,18,13,13,7.20
2011,02,18,13,14,7.20
2011,02,18,13,15,7.20
2011,02,18,13,16,7.20
2011,02,18,13,17,7.20
2011,02,18,13,18,7.20
2011,02,18,13,19,7.20
2011,02,18,13,20,7.20
2011,02,18,13,21,7.10
2011,02,18,13,22,7.10
2011,02,18,13,23,7.10
2011,02,18,13,24,7.10
2011,02,18,13,25,7.20
2011,02,18,13,26,7.20
2011,02,18,13,27,7.20
2011,02,18,13,28,7.20
2011,02,18,13,29,7.20
2011,02,18,13,30,7.20
2011,02,18,13,31,7.20
2011,02,18,13,32,7.20
2011,02,18,13,33,7.20
2011,02,18,13,34,7.10
2011,02,18,13,35,7.10
2011,02,18,13,36,7.10
2011,02,18,13,37,7.10
2011,02,18,13,38,7.00
2011,02,18,13,39,7.00
2011,02,18,13,40,7.00
2011,02,18,13,41,7.00
2011,02,18,13,42,6.90
2011,02,18,13,43,6.90
2011,02,18,13,44,6.90
2011,02,18,13,45,7.00
2011,02,18,13,46,7.00
2011,02,18,13,47,7.00
2011,02,18,13,48,7.00
2011,02,18,13,49,7.00
2011,02,18,13,50,7.00
2011,02,18,13,51,7.00
2011,02,18,13,52,7.00
2011,02,18,13,53,7.00
2011,02,18,13,54,7.00
2011,02,18,13,55,7.10
2011,02,18,13,56,7.10
2011,02,18,13,57,7.10
2011,02,18,13,58,7.10
2011,02,18,13,59,7.10
2011,02,18,14,00,7.10
2011,02,18,14,01,7.10
2011,02,18,14,02,7.10
2011,02,18,14,03,7.10
2011,02,18,14,04,7.10
2011,02,18,14,05,7.10
2011,02,18,14,06,7.10
2011,02,18,14,07,7.00
2011,02,18,14,08,7.00
2011,02,18,14,09,6.90
2011,02,18,14,10,6.90
2011,02,18,14,11,6.90
2011,02,18,14,12,6.90
2011,02,18,14,13,6.90
2011,02,18,14,14,6.90
2011,02,18,14,15,6.90
2011,02,18,14,16,6.90
2011,02,18,14,17,6.90
2011,02,18,14,18,6.90
2011,02,18,14,19,6.90
2011,02,18,14,20,6.90
2011,02,18,14,21,6.90
2011,02,18,14,22,6.90
2011,02,18,14,23,6.90
2011,02,18,14,24,6.90
2011,02,18,14,25,6.90
2011,02,18,14,26,6.90
2011,02,18,14,27,6.90
2011,02,18,14,28,6.90
2011,02,18,14,29,6.90
2011,02,18,14,30,6.90
2011,02,18,14,31,6.90
2011,02,18,14,32,7.00
2011,02,18,14,33,7.00
2011,02,18,14,34,7.00
2011,02,18,14,35,7.00
2011,02,18,14,36,7.00
2011,02,18,14,37,7.00
2011,02,18,14,38,7.00
2011,02,18,14,39,7.00
2011,02,18,14,40,6.90
2011,02,18,14,41,7.00
2011,02,18,14,42,7.00
2011,02,18,14,43,7.00
2011,02,18,14,44,7.00
2011,02,18,14,45,7.00
2011,02,18,14,46,7.00
2011,02,18,14,47,7.00
2011,02,18,14,48,7.00
2011,02,18,14,49,7.10
2011,02,18,14,50,7.10
2011,02,18,14,51,7.10
2011,02,18,14,52,7.10
2011,02,18,14,53,7.10
2011,02,18,14,54,7.10
2011,02,18,14,55,7.10
2011,02,18,14,56,7.10
2011,02,18,14,57,7.10
2011,02,18,14,58,7.10
2011,02,18,14,59,7.20
2011,02,18,15,00,7.20
2011,02,18,15,01,7.20
2011,02,18,15,02,7.20
2011,02,18,15,03,7.20
2011,02,18,15,04,7.20
2011,02,18,15,05,7.20
2011,02,18,15,06,7.30
2011,02,18,15,07,7.30
2011,02,18,15,08,7.30
2011,02,18,15,09,7.30
2011,02,18,15,10,7.30
2011,02,18,15,11,7.40
2011,02,18,15,12,7.40
2011,02,18,15,13,7.40
2011,02,18,15,14,7.50
2011,02,18,15,15,7.50
2011,02,18,15,16,7.60
2011,02,18,15,17,7.60
2011,02,18,15,18,7.60
2011,02,18,15,19,7.60
2011,02,18,15,20,7.70
2011,02,18,15,21,7.70
2011,02,18,15,22,7.70
2011,02,18,15,23,7.70
2011,02,18,15,24,7.80
2011,02,18,15,25,7.80
2011,02,18,15,26,7.80
2011,02,18,15,27,7.80
2011,02,18,15,28,7.80
2011,02,18,15,29,7.80
2011,02,18,15,30,7.80
2011,02,18,15,31,7.90
2011,02,18,15,32,7.90
2011,02,18,15,33,7.90
2011,02,18,15,34,7.90
2011,02,18,15,35,7.90
2011,02,18,15,36,7.90
2011,02,18,15,37,7.90
2011,02,18,15,38,7.90
2011,02,18,15,39,7.90
2011,02,18,15,40,7.90
2011,02,18,15,41,7.90
2011,02,18,15,42,7.80
2011,02,18,15,43,7.80
2011,02,18,15,44,7.80
2011,02,18,15,45,7.80
2011,02,18,15,46,7.80
2011,02,18,15,47,7.80
2011,02,18,15,48,7.80
2011,02,18,15,49,7.70
2011,02,18,15,50,7.70
2011,02,18,15,51,7.70
2011,02,18,15,52,7.60
2011,02,18,15,53,7.60
2011,02,18,15,54,7.50
2011,02,18,15,55,7.50
2011,02,18,15,56,7.50
2011,02,18,15,57,7.40
2011,02,18,15,58,7.40
2011,02,18,15,59,7.40
2011,02,18,16,00,7.40
2011,02,18,16,01,7.40
2011,02,18,16,02,7.40
2011,02,18,16,03,7.40
2011,02,18,16,04,7.40
2011,02,18,16,05,7.40
2011,02,18,16,06,7.40
2011,02,18,16,07,7.40
2011,02,18,16,08,7.50
2011,02,18,16,09,7.50
2011,02,18,16,10,7.50
2011,02,18,16,11,7.50
2011,02,18,16,12,7.50
2011,02,18,16,13,7.50
2011,02,18,16,14,7.60
2011,02,18,16,15,7.60
2011,02,18,16,16,7.60
2011,02,18,16,17,7.60
2011,02,18,16,18,7.60
2011,02,18,16,19,7.60
2011,02,18,16,20,7.60
2011,02,18,16,21,7.60
2011,02,18,16,22,7.60
2011,02,18,16,23,7.60
2011,02,18,16,24,7.60
2011,02,18,16,25,7.60
2011,02,18,16,26,7.60
2011,02,18,16,27,7.60
2011,02,18,16,28,7.60
2011,02,18,16,29,7.60
2011,02,18,16,30,7.60
2011,02,18,16,31,7.60
2011,02,18,16,32,7.60
2011,02,18,16,33,7.50
2011,02,18,16,34,7.50
2011,02,18,16,35,7.50
2011,02,18,16,36,7.40
2011,02,18,16,37,7.30
2011,02,18,16,38,7.30
2011,02,18,16,39,7.20
2011,02,18,16,40,7.20
2011,02,18,16,41,7.20
2011,02,18,16,42,7.10
2011,02,18,16,43,7.00
2011,02,18,16,44,7.00
2011,02,18,16,45,6.90
2011,02,18,16,46,6.90
2011,02,18,16,47,6.80
2011,02,18,16,48,6.80
2011,02,18,16,49,6.80
2011,02,18,16,50,6.70
2011,02,18,16,51,6.70
2011,02,18,16,52,6.70
2011,02,18,16,53,6.70
2011,02,18,16,54,6.60
2011,02,18,16,55,6.60
2011,02,18,16,56,6.50
2011,02,18,16,57,6.50
2011,02,18,16,58,6.50
2011,02,18,16,59,6.40
2011,02,18,17,00,6.30
2011,02,18,17,01,6.30
2011,02,18,17,02,6.30
2011,02,18,17,03,6.20
2011,02,18,17,04,6.20
2011,02,18,17,05,6.10
2011,02,18,17,06,6.10
2011,02,18,17,07,6.00
2011,02,18,17,08,5.90
2011,02,18,17,09,5.90
2011,02,18,17,10,5.80
2011,02,18,17,11,5.70
2011,02,18,17,12,5.70
2011,02,18,17,13,5.70
2011,02,18,17,14,5.60
2011,02,18,17,15,5.60
2011,02,18,17,16,5.50
2011,02,18,17,17,5.50
2011,02,18,17,18,5.40
2011,02,18,17,19,5.40
2011,02,18,17,20,5.40
2011,02,18,17,21,5.30
2011,02,18,17,22,5.30
2011,02,18,17,23,5.30
2011,02,18,17,24,5.20
2011,02,18,17,25,5.20
2011,02,18,17,26,5.10
2011,02,18,17,27,5.10
2011,02,18,17,28,5.10
2011,02,18,17,29,5.00
2011,02,18,17,30,5.00
2011,02,18,17,31,4.90
2011,02,18,17,32,4.90
2011,02,18,17,33,4.80
2011,02,18,17,34,4.80
2011,02,18,17,35,4.80
2011,02,18,17,36,4.80
2011,02,18,17,37,4.70
2011,02,18,17,38,4.70
2011,02,18,17,39,4.70
2011,02,18,17,40,4.60
2011,02,18,17,41,4.60
2011,02,18,17,42,4.60
2011,02,18,17,43,4.50
2011,02,18,17,44,4.50
2011,02,18,17,45,4.40
2011,02,18,17,46,4.40
2011,02,18,17,47,4.40
2011,02,18,17,48,4.30
2011,02,18,17,49,4.30
2011,02,18,17,50,4.30
2011,02,18,17,51,4.30
2011,02,18,17,52,4.20
2011,02,18,17,53,4.20
2011,02,18,17,54,4.20
2011,02,18,17,55,4.20
2011,02,18,17,56,4.20
2011,02,18,17,57,4.20
2011,02,18,17,58,4.20
2011,02,18,17,59,4.20
2011,02,18,18,00,4.20
2011,02,18,18,01,4.20